GW2674 Weather Reports


time (UTC)temp
F
wind
direction
speed
knots
gust
knots
rain 1hr
in
rain 24hr
in
rain mn
in
humidity
%
barometer
mb
20260505022507 75 236 4.3 16.5 0.00 0.00 0.00 38 1011.6
20260505021002 76 243 5.2 14.8 0.00 0.00 0.00 37 1011.6
20260505015457 78 263 10.4 20.0 0.00 0.00 0.00 35 1011.6
20260505013954 78 263 10.4 20.0 0.00 0.00 0.00 35 1011.6
20260505012452 78 263 10.4 20.0 0.00 0.00 0.00 35 1011.6
20260505010947 79 262 7.8 15.6 0.00 0.00 0.00 34 1011.2
20260505005442 79 262 7.8 15.6 0.00 0.00 0.00 34 1011.2
20260505003939 80 261 7.8 17.4 0.00 0.00 0.00 33 1011.2
20260505002434 80 261 7.8 17.4 0.00 0.00 0.00 33 1011.2
20260505000933 80 261 7.8 17.4 0.00 0.00 0.00 33 1011.2
20260504232439 79 258 7.8 17.4 0.00 0.00 0.00 33 1011.6
20260504230935 79 258 7.8 17.4 0.00 0.00 0.00 33 1011.6
20260504225433 79 258 7.8 17.4 0.00 0.00 0.00 33 1011.6
20260504223930 79 262 9.6 20.9 0.00 0.00 0.00 33 1011.6
20260504222431 78 266 11.3 26.1 0.00 0.00 0.00 34 1011.9
20260504214000 77 271 10.4 24.3 0.00 0.00 0.00 38 1011.9
20260504212455 77 271 10.4 24.3 0.00 0.00 0.00 38 1011.9
20260504210953 77 271 10.4 24.3 0.00 0.00 0.00 38 1011.9
20260504205450 77 276 10.4 26.1 0.00 0.00 0.00 39 1011.9
20260504203945 77 276 10.4 26.1 0.00 0.00 0.00 39 1011.9
20260504202441 77 276 10.4 26.1 0.00 0.00 0.00 39 1011.9
20260504200938 77 268 7.8 23.5 0.00 0.00 0.00 39 1011.9
20260504195433 76 267 8.7 18.2 0.00 0.00 0.00 39 1012.2
20260504193933 74 272 10.4 22.6 0.00 0.00 0.00 41 1012.2
20260504192432 74 272 10.4 22.6 0.00 0.00 0.00 41 1012.2
20260504190929 74 272 10.4 22.6 0.00 0.00 0.00 41 1012.2
20260504184000 72 265 5.2 11.3 0.00 0.00 0.00 42 1012.6
20260504182457 72 265 5.2 11.3 0.00 0.00 0.00 42 1012.6
20260504180956 72 265 5.2 11.3 0.00 0.00 0.00 42 1012.6
20260504175455 70 277 7.0 14.8 0.00 0.00 0.00 44 1012.9
20260504173953 70 277 7.0 14.8 0.00 0.00 0.00 44 1012.9
20260504172448 69 268 8.7 13.0 0.00 0.00 0.00 45 1012.9
20260504170945 66 228 0.0 2.6 0.00 0.00 0.00 50 1013.2
20260504151015 57 190 0.9 3.5 0.00 0.00 0.00 67 1014.0
20260504045431 64 43 0.9 3.5 0.00 0.00 0.00 56 1013.6
20260504033942 72 170 0.9 4.3 0.00 0.00 0.00 40 1012.2
20260504032439 72 170 0.9 4.3 0.00 0.00 0.00 40 1012.2
20260504030935 72 170 0.9 4.3 0.00 0.00 0.00 40 1012.2
20260504025431 74 257 0.9 5.2 0.00 0.00 0.00 37 1012.2
20260504023928 77 159 0.9 2.6 0.00 0.00 0.00 35 1011.9